Location: Auckland
(36.8670°S, 174.7670°E)
Time: 13:04:19
(UTC+12:00)

SR - All Passes

Search period start: 20 August 2019 00:00
Search period end: 30 August 2019 00:00
Orbit: 578 x 878 km, 66.7° (Epoch: 19 August)

Date Brightness Start Highest point End Pass type
(mag) Time Alt. Az. Time Alt. Az. Time Alt. Az.
20 Aug - 01:08:58 10° NNW 01:14:48 74° ENE 01:20:20 10° SSE night (unlit)
20 Aug - 02:53:38 10° W 02:57:22 18° SW 03:00:59 10° S night (unlit)
20 Aug - 09:53:41 10° S 09:57:39 27° SE 10:01:23 10° ENE daylight
20 Aug - 11:35:51 10° SW 11:39:33 25° WNW 11:43:04 10° NNW daylight
21 Aug - 00:20:00 10° N 00:25:17 37° ENE 00:30:21 10° SE night (unlit)
21 Aug - 02:02:17 10° WNW 02:07:23 32° SW 02:12:15 10° S night (unlit)
21 Aug - 09:05:11 10° SSE 09:07:36 14° SE 09:09:57 10° ESE daylight
21 Aug - 10:45:39 10° SW 10:50:10 61° WNW 10:54:22 10° NNE daylight
21 Aug - 23:32:05 10° NNE 23:35:54 18° ENE 23:39:38 10° ESE night (unlit)
22 Aug - 01:11:51 10° NW 01:17:35 60° WSW 01:23:01 10° SSE night (unlit)
22 Aug - 09:56:02 10° SSW 10:00:33 55° ESE 10:04:47 10° NE daylight
22 Aug - 11:40:31 10° W 11:41:54 11° WNW 11:43:16 10° WNW daylight
23 Aug - 00:22:09 10° NNW 00:27:56 70° ENE 00:33:26 10° SSE night (unlit)
23 Aug - 02:06:35 10° W 02:10:28 18° SW 02:14:11 10° S night (unlit)
23 Aug - 09:06:53 10° S 09:10:43 25° SE 09:14:22 10° ENE daylight
23 Aug - 10:48:53 10° SW 10:52:40 27° WNW 10:56:17 10° NNW daylight
23 Aug - 23:33:14 10° N 23:38:26 34° ENE 23:43:24 10° SE night (unlit)
24 Aug - 01:15:20 10° WNW 01:20:29 33° SW 01:25:24 10° S night (unlit)
24 Aug - 08:18:30 10° SSE 08:20:40 13° SE 08:22:46 10° ESE daylight
24 Aug - 09:58:45 10° SSW 10:03:16 67° WNW 10:07:29 10° NNE daylight
24 Aug - 22:45:29 10° NE 22:49:04 17° ENE 22:52:33 10° ESE night (unlit)
25 Aug - 00:24:57 10° NW 00:30:42 64° WSW 00:36:08 10° SSE night (unlit)
25 Aug - 02:12:48 10° SW 02:13:43 10° SW 02:14:38 10° SSW night (unlit)
25 Aug - 09:09:11 10° SSW 09:13:38 51° ESE 09:17:49 10° NE daylight
25 Aug - 10:53:16 10° W 10:55:03 12° WNW 10:56:48 10° NW daylight
25 Aug - 23:35:20 10° NNW 23:41:05 66° ENE 23:46:31 10° SSE night (unlit)
26 Aug - 01:19:34 10° W 01:23:33 19° SW 01:27:23 10° S night (unlit)
26 Aug - 08:20:04 10° S 08:23:47 24° SE 08:27:20 10° ENE daylight
26 Aug - 10:01:55 10° SW 10:05:47 29° WNW 10:09:30 10° N daylight
26 Aug - 22:46:30 10° N 22:51:35 32° ENE 22:56:27 10° SE night (unlit)
27 Aug - 00:28:23 10° WNW 00:33:36 35° SW 00:38:32 10° S night (unlit)
27 Aug - 07:31:52 10° SSE 07:33:43 12° SE 07:35:31 10° ESE daylight
27 Aug - 09:11:52 10° SSW 09:16:22 72° WNW 09:20:36 10° NNE daylight
27 Aug - 21:58:54 10° NE 22:02:14 16° ENE 22:05:28 10° ESE night (unlit)
27 Aug - 23:38:05 10° NW 23:43:50 68° WSW 23:49:15 10° SSE night (unlit)
28 Aug - 01:25:22 10° WSW 01:26:47 11° SW 01:28:10 10° SSW night (unlit)
28 Aug - 08:22:19 10° SSW 08:26:43 47° ESE 08:30:52 10° NE daylight
28 Aug - 10:06:05 10° WSW 10:08:11 13° WNW 10:10:14 10° NW daylight
28 Aug - 22:48:31 10° NNW 22:54:13 62° ENE 22:59:36 10° SE night (unlit)
29 Aug - 00:32:32 10° W 00:36:38 20° SW 00:40:34 10° S night (unlit)
29 Aug - 07:33:16 10° S 07:36:51 22° SE 07:40:17 10° ENE daylight
29 Aug - 09:14:58 10° SW 09:18:55 31° WNW 09:22:41 10° N daylight
29 Aug - 21:59:46 10° N 22:04:44 30° ENE 22:09:29 10° SE night (unlit)
29 Aug - 23:41:26 10° WNW 23:46:42 37° WSW 23:51:41 10° S night (unlit)
